DLH225 EKVG-ENTC

Flight info

Callsign DLH225
Flight time N/A
Altitude 35000
Route ODEVA DCT 65N000E/N0440F350 DCT NORVA DCT GILGU
Aircraft B752/M-SDE2E3FGHIJ3J4J7RWXY/LB1

Departure

Time 2026-04-29 14:57
Airport Vágar Airport (EKVG)

Arrival

Time N/A
Airport Tromsø Airport (ENTC)
Time Latitude Longitude Altitude Speed Heading
2026-04-29 14:19 62.06665 -7.27877 287 ft 0 kts 29°
2026-04-29 14:40 62.06654 -7.27889 288 ft 2 kts 29°
2026-04-29 14:40 62.06634 -7.27910 288 ft 3 kts 17°
2026-04-29 14:40 62.06614 -7.27914 288 ft 2 kts 346°
2026-04-29 14:40 62.06600 -7.27895 287 ft 2 kts 302°
2026-04-29 14:41 62.06597 -7.27866 287 ft 2 kts 257°
2026-04-29 14:41 62.06603 -7.27835 287 ft 1 kts 248°
2026-04-29 14:41 62.06605 -7.27822 287 ft 0 kts 261°
2026-04-29 14:41 62.06605 -7.27818 287 ft 0 kts 296°
2026-04-29 14:42 62.06602 -7.27805 287 ft 1 kts 298°
2026-04-29 14:42 62.06599 -7.27795 287 ft 0 kts 298°
2026-04-29 14:42 62.06597 -7.27784 287 ft 0 kts 298°
2026-04-29 14:42 62.06594 -7.27775 287 ft 0 kts 298°
2026-04-29 14:43 62.06592 -7.27766 287 ft 0 kts 298°
2026-04-29 14:43 62.06590 -7.27758 287 ft 0 kts 298°
2026-04-29 14:49 62.06590 -7.27759 287 ft 0 kts 299°
2026-04-29 14:49 62.06615 -7.27834 287 ft 8 kts 300°
2026-04-29 14:49 62.06640 -7.27950 287 ft 8 kts 289°
2026-04-29 14:49 62.06641 -7.28063 287 ft 6 kts 225°
2026-04-29 14:50 62.06593 -7.28087 287 ft 7 kts 185°
2026-04-29 14:50 62.06578 -7.28091 287 ft 0 kts 188°
2026-04-29 14:52 62.06575 -7.28092 287 ft 2 kts 188°
2026-04-29 14:52 62.06533 -7.28116 287 ft 9 kts 202°
2026-04-29 14:52 62.06488 -7.28210 287 ft 10 kts 278°
2026-04-29 14:53 62.06516 -7.28355 286 ft 11 kts 296°
2026-04-29 14:53 62.06551 -7.28512 285 ft 12 kts 295°
2026-04-29 14:53 62.06595 -7.28676 283 ft 13 kts 300°
2026-04-29 14:53 62.06643 -7.28867 281 ft 15 kts 297°
2026-04-29 14:54 62.06691 -7.29063 277 ft 12 kts 296°
2026-04-29 14:54 62.06709 -7.29198 275 ft 7 kts 308°
2026-04-29 14:54 62.06726 -7.29201 274 ft 2 kts 50°
2026-04-29 14:54 62.06725 -7.29177 275 ft 0 kts 128°
2026-04-29 14:55 62.06720 -7.29164 275 ft 5 kts 134°
2026-04-29 14:55 62.06704 -7.29117 276 ft 0 kts 118°
2026-04-29 14:56 62.06699 -7.29097 277 ft 3 kts 118°
2026-04-29 14:56 62.06635 -7.28841 281 ft 47 kts 118°
2026-04-29 14:56 62.06364 -7.27738 288 ft 121 kts 118°
2026-04-29 14:56 62.05904 -7.25763 606 ft 160 kts 121°
2026-04-29 14:57 62.05329 -7.23673 1281 ft 174 kts 139°